This is the latest recevied weather packets stored in our database for station/object OK1KKY-18. If no packets are shown the sender has not sent any weather packets the latest 10 day(s).
| Time | Temp. | Humidity | Pressure | Rain* | Wind** | Luminosity | Snow |
|---|---|---|---|---|---|---|---|
| 1787690837 | 12.22° C | 94% | 1019.3 hPa | - | - | - | - |
| 1787690237 | 12.22° C | 95% | 1019.3 hPa | - | - | - | - |
| 1787689638 | 12.22° C | 95% | 1019.3 hPa | - | - | - | - |
| 1787689037 | 12.22° C | 97% | 1019.3 hPa | - | - | - | - |
| 1787688437 | 12.22° C | 97% | 1019.3 hPa | - | - | - | - |
| 1787687837 | 12.22° C | 97% | 1019.1 hPa | - | - | - | - |
| 1787687237 | 12.22° C | 99% | 1019.1 hPa | - | - | - | - |
| 1787686636 | 12.22° C | 99% | 1019 hPa | - | - | - | - |
| 1787686037 | 12.22° C | 98% | 1018.9 hPa | - | - | - | - |
| 1787685437 | 12.22° C | 97% | 1018.8 hPa | - | - | - | - |
| 1787684837 | 12.78° C | 97% | 1018.8 hPa | - | - | - | - |
| 1787684237 | 12.78° C | 95% | 1018.7 hPa | - | - | - | - |
| 1787683637 | 13.33° C | 95% | 1018.6 hPa | - | - | - | - |
| 1787682437 | 13.33° C | 92% | 1018.4 hPa | - | - | - | - |
| 1787681837 | 13.33° C | 93% | 1018.4 hPa | - | - | - | - |
| 1787681237 | 13.33° C | 93% | 1018.3 hPa | - | - | - | - |
| 1787680637 | 13.89° C | 93% | 1018.3 hPa | - | - | - | - |
| 1787680037 | 13.89° C | 90% | 1018.3 hPa | - | - | - | - |
| 1787679438 | 14.44° C | 89% | 1018.2 hPa | - | - | - | - |
| 1787678837 | 14.44° C | 86% | 1018.2 hPa | - | - | - | - |
| 1787678237 | 14.44° C | 86% | 1018 hPa | - | - | - | - |
| 1787677637 | 14.44° C | 85% | 1018.1 hPa | - | - | - | - |
| 1787677037 | 14.44° C | 86% | 1018 hPa | - | - | - | - |
| 1787676437 | 15° C | 86% | 1018 hPa | - | - | - | - |
| 1787675837 | 15° C | 82% | 1018 hPa | - | - | - | - |
* Rain since midnight (hover to see other rain measurements)
** Current wind speed in m/s (hover to see current wind gust speed)